Time,TemperatureF,DewpointF,PressureIn,WindDirection,WindDirectionDegrees,WindSpeedMPH,WindSpeedGustMPH,Humidity,HourlyPrecipIn,Conditions,Clouds,dailyrainin,SolarRadiationWatts/m^2,SoftwareType,DateUTC
2013-06-07 00:02:00,50.0,49.0,-100.00,NE,56,0.0,0.0,95,0.00,,,0.11,34.000000,,2013-06-07 08:02:00,
2013-06-07 00:12:00,50.0,49.0,-100.00,NE,56,0.0,0.0,95,0.00,,,0.11,34.000000,,2013-06-07 08:12:00,
2013-06-07 00:32:00,47.0,46.0,-100.00,West,278,0.0,0.0,95,0.00,,,0.11,13.000000,,2013-06-07 08:32:00,
2013-06-07 00:43:00,47.0,46.0,-100.00,West,278,0.0,0.0,95,0.00,,,0.11,13.000000,,2013-06-07 08:43:00,
2013-06-07 00:52:00,47.0,46.0,-100.00,West,278,0.0,0.0,95,0.00,,,0.11,13.000000,,2013-06-07 08:52:00,
2013-06-07 01:02:00,47.0,46.0,-100.00,West,278,0.0,0.0,95,0.00,,,0.11,13.000000,,2013-06-07 09:02:00,
2013-06-07 01:12:00,47.0,46.0,-100.00,West,278,0.0,0.0,95,0.00,,,0.11,13.000000,,2013-06-07 09:12:00,
2013-06-07 01:32:00,43.0,42.0,-100.00,North,7,0.0,0.0,98,0.00,,,0.11,3.000000,,2013-06-07 09:32:00,
2013-06-07 01:43:00,43.0,42.0,-100.00,North,7,0.0,0.0,98,0.00,,,0.11,3.000000,,2013-06-07 09:43:00,
2013-06-07 01:53:00,43.0,42.0,-100.00,North,7,0.0,0.0,98,0.00,,,0.11,3.000000,,2013-06-07 09:53:00,
2013-06-07 02:02:00,43.0,42.0,-100.00,North,7,0.0,0.0,98,0.00,,,0.11,3.000000,,2013-06-07 10:02:00,
2013-06-07 02:33:00,40.0,39.0,-100.00,SSE,159,0.0,1.0,98,-99.99,,,0.11,0.000000,,2013-06-07 10:33:00,
2013-06-07 02:42:00,40.0,39.0,-100.00,SSE,159,0.0,1.0,98,-99.99,,,0.11,0.000000,,2013-06-07 10:42:00,
2013-06-07 02:53:00,40.0,39.0,-100.00,SSE,159,0.0,1.0,98,-99.99,,,0.11,0.000000,,2013-06-07 10:53:00,
2013-06-07 03:02:00,40.0,39.0,-100.00,SSE,159,0.0,1.0,98,-99.99,,,0.11,0.000000,,2013-06-07 11:02:00,
2013-06-07 03:32:00,38.0,38.0,-100.00,WSW,248,0.0,1.0,99,-99.99,,,0.11,2.000000,,2013-06-07 11:32:00,
2013-06-07 03:42:00,38.0,38.0,-100.00,WSW,248,0.0,1.0,99,-99.99,,,0.11,2.000000,,2013-06-07 11:42:00,
2013-06-07 03:52:00,38.0,38.0,-100.00,WSW,248,0.0,1.0,99,-99.99,,,0.11,2.000000,,2013-06-07 11:52:00,
2013-06-07 04:02:00,38.0,38.0,-100.00,WSW,248,0.0,1.0,99,-99.99,,,0.11,2.000000,,2013-06-07 12:02:00,
2013-06-07 04:33:00,39.0,39.0,-100.00,South,169,0.0,0.0,99,-99.99,,,0.11,8.000000,,2013-06-07 12:33:00,
2013-06-07 04:42:00,39.0,39.0,-100.00,South,169,0.0,0.0,99,-99.99,,,0.11,8.000000,,2013-06-07 12:42:00,
2013-06-07 04:52:00,39.0,39.0,-100.00,South,169,0.0,0.0,99,-99.99,,,0.11,8.000000,,2013-06-07 12:52:00,
2013-06-07 05:02:00,39.0,39.0,-100.00,South,169,0.0,0.0,99,-99.99,,,0.11,8.000000,,2013-06-07 13:02:00,
2013-06-07 05:43:00,45.0,45.0,-100.00,SE,126,0.0,3.0,100,-99.99,,,0.11,30.000000,,2013-06-07 13:43:00,
2013-06-07 05:52:00,45.0,45.0,-100.00,SE,126,0.0,3.0,100,-99.99,,,0.11,30.000000,,2013-06-07 13:52:00,
2013-06-07 06:02:00,45.0,45.0,-100.00,SE,126,0.0,3.0,100,-99.99,,,0.11,30.000000,,2013-06-07 14:02:00,
2013-06-07 06:12:00,45.0,45.0,-100.00,SE,126,0.0,3.0,100,-99.99,,,0.11,30.000000,,2013-06-07 14:12:00,
2013-06-07 06:33:00,53.0,52.0,-100.00,ENE,62,0.0,1.0,98,0.00,,,0.11,153.000000,,2013-06-07 14:33:00,
2013-06-07 06:42:00,53.0,52.0,-100.00,ENE,62,0.0,1.0,98,0.00,,,0.11,153.000000,,2013-06-07 14:42:00,
2013-06-07 06:52:00,53.0,52.0,-100.00,ENE,62,0.0,1.0,98,0.00,,,0.11,153.000000,,2013-06-07 14:52:00,
2013-06-07 07:02:00,53.0,52.0,-100.00,ENE,62,0.0,1.0,98,0.00,,,0.11,153.000000,,2013-06-07 15:02:00,
2013-06-07 07:12:00,53.0,52.0,-100.00,ENE,62,0.0,1.0,98,0.00,,,0.11,153.000000,,2013-06-07 15:12:00,
2013-06-07 07:33:00,57.0,47.0,-100.00,ENE,78,3.0,5.0,70,0.00,,,-99.99,247.000000,,2013-06-07 15:33:00,
2013-06-07 07:43:00,57.0,47.0,-100.00,ENE,78,3.0,5.0,70,0.00,,,-99.99,247.000000,,2013-06-07 15:43:00,
2013-06-07 07:53:00,57.0,47.0,-100.00,ENE,78,3.0,5.0,70,0.00,,,-99.99,247.000000,,2013-06-07 15:53:00,
2013-06-07 08:03:00,57.0,47.0,-100.00,ENE,78,3.0,5.0,70,0.00,,,-99.99,247.000000,,2013-06-07 16:03:00,
2013-06-07 08:12:00,57.0,47.0,-100.00,ENE,78,3.0,5.0,70,0.00,,,-99.99,247.000000,,2013-06-07 16:12:00,
2013-06-07 08:33:00,60.0,47.0,-100.00,ENE,69,3.0,6.0,61,0.00,,,0.11,348.000000,,2013-06-07 16:33:00,
2013-06-07 08:43:00,60.0,47.0,-100.00,ENE,69,3.0,6.0,61,0.00,,,0.11,348.000000,,2013-06-07 16:43:00,
2013-06-07 08:53:00,60.0,47.0,-100.00,ENE,69,3.0,6.0,61,0.00,,,0.11,348.000000,,2013-06-07 16:53:00,
2013-06-07 09:02:00,60.0,47.0,-100.00,ENE,69,3.0,6.0,61,0.00,,,0.11,348.000000,,2013-06-07 17:02:00,
2013-06-07 09:12:00,60.0,47.0,-100.00,ENE,69,3.0,6.0,61,0.00,,,0.11,348.000000,,2013-06-07 17:12:00,
2013-06-07 09:32:00,65.0,48.0,-100.00,ENE,60,1.0,5.0,54,0.00,,,0.11,476.000000,,2013-06-07 17:32:00,
2013-06-07 09:43:00,65.0,48.0,-100.00,ENE,60,1.0,5.0,54,0.00,,,0.11,476.000000,,2013-06-07 17:43:00,
2013-06-07 09:52:00,65.0,48.0,-100.00,ENE,60,1.0,5.0,54,0.00,,,0.11,476.000000,,2013-06-07 17:52:00,
2013-06-07 10:03:00,65.0,48.0,-100.00,ENE,60,1.0,5.0,54,0.00,,,0.11,476.000000,,2013-06-07 18:03:00,
2013-06-07 10:38:00,66.0,48.0,-100.00,SSE,157,2.0,6.0,52,0.00,,,0.11,448.000000,,2013-06-07 18:38:00,
2013-06-07 10:45:00,66.0,48.0,-100.00,SSE,157,2.0,6.0,52,0.00,,,0.11,448.000000,,2013-06-07 18:45:00,
2013-06-07 10:58:00,66.0,48.0,-100.00,SSE,157,2.0,6.0,52,0.00,,,0.11,448.000000,,2013-06-07 18:58:00,
2013-06-07 11:04:00,66.0,48.0,-100.00,SSE,157,2.0,6.0,52,0.00,,,0.11,448.000000,,2013-06-07 19:04:00,
2013-06-07 11:12:00,66.0,48.0,-100.00,SSE,157,2.0,6.0,52,0.00,,,0.11,448.000000,,2013-06-07 19:12:00,
2013-06-07 11:50:00,67.0,42.0,-100.00,North,358,3.0,9.0,40,0.00,,,0.11,657.000000,,2013-06-07 19:50:00,
2013-06-07 12:03:00,67.0,42.0,-100.00,North,358,3.0,9.0,40,0.00,,,0.11,657.000000,,2013-06-07 20:03:00,
2013-06-07 12:13:00,67.0,42.0,-100.00,North,358,3.0,9.0,40,0.00,,,0.11,657.000000,,2013-06-07 20:13:00,
2013-06-07 12:41:00,71.0,40.0,-100.00,North,3,2.0,7.0,33,0.00,,,-99.99,885.000000,,2013-06-07 20:41:00,
2013-06-07 12:57:00,71.0,40.0,-100.00,North,3,2.0,7.0,33,0.00,,,-99.99,885.000000,,2013-06-07 20:57:00,
2013-06-07 13:04:00,71.0,40.0,-100.00,North,3,2.0,7.0,33,0.00,,,-99.99,885.000000,,2013-06-07 21:04:00,
2013-06-07 13:13:00,71.0,40.0,-100.00,North,3,2.0,7.0,33,0.00,,,-99.99,885.000000,,2013-06-07 21:13:00,
2013-06-07 13:42:00,72.0,43.0,-100.00,NW,316,3.0,11.0,35,0.00,,,0.10,833.000000,,2013-06-07 21:42:00,
2013-06-07 13:59:00,72.0,43.0,-100.00,NW,316,3.0,11.0,35,0.00,,,0.10,833.000000,,2013-06-07 21:59:00,
2013-06-07 14:07:00,72.0,43.0,-100.00,NW,316,3.0,11.0,35,0.00,,,0.10,833.000000,,2013-06-07 22:07:00,
2013-06-07 14:15:00,72.0,43.0,-100.00,NW,316,3.0,11.0,35,0.00,,,0.10,833.000000,,2013-06-07 22:15:00,
2013-06-07 14:39:00,74.0,40.0,-100.00,ENE,64,2.0,8.0,29,0.00,,,0.10,947.000000,,2013-06-07 22:39:00,
2013-06-07 14:49:00,74.0,40.0,-100.00,ENE,64,2.0,8.0,29,0.00,,,0.10,947.000000,,2013-06-07 22:49:00,
2013-06-07 14:59:00,74.0,40.0,-100.00,ENE,64,2.0,8.0,29,0.00,,,0.10,947.000000,,2013-06-07 22:59:00,
2013-06-07 15:05:00,74.0,40.0,-100.00,ENE,64,2.0,8.0,29,0.00,,,0.10,947.000000,,2013-06-07 23:05:00,
2013-06-07 15:14:00,74.0,40.0,-100.00,ENE,64,2.0,8.0,29,0.00,,,0.10,947.000000,,2013-06-07 23:14:00,
2013-06-07 15:40:00,67.0,34.0,-100.00,NE,41,4.0,10.0,29,0.00,,,-99.99,666.000000,,2013-06-07 23:40:00,
2013-06-07 16:00:00,67.0,34.0,-100.00,NE,41,4.0,10.0,29,0.00,,,-99.99,666.000000,,2013-06-08 00:00:00,
2013-06-07 16:06:00,67.0,34.0,-100.00,NE,41,4.0,10.0,29,0.00,,,-99.99,666.000000,,2013-06-08 00:06:00,
2013-06-07 16:14:00,67.0,34.0,-100.00,NE,41,4.0,10.0,29,0.00,,,-99.99,666.000000,,2013-06-08 00:14:00,
2013-06-07 16:37:00,69.0,36.0,-100.00,North,7,0.0,11.0,30,0.00,,,-99.99,334.000000,,2013-06-08 00:37:00,
2013-06-07 16:47:00,69.0,36.0,-100.00,North,7,0.0,11.0,30,0.00,,,-99.99,334.000000,,2013-06-08 00:47:00,
2013-06-07 16:58:00,69.0,36.0,-100.00,North,7,0.0,11.0,30,0.00,,,-99.99,334.000000,,2013-06-08 00:58:00,
2013-06-07 17:03:00,69.0,36.0,-100.00,North,7,0.0,11.0,30,0.00,,,-99.99,334.000000,,2013-06-08 01:03:00,
2013-06-07 17:39:00,72.0,42.0,-100.00,NW,305,1.0,4.0,34,0.00,,,0.01,343.000000,,2013-06-08 01:39:00,
2013-06-07 17:47:00,72.0,42.0,-100.00,NW,305,1.0,4.0,34,0.00,,,0.01,343.000000,,2013-06-08 01:47:00,
2013-06-07 17:58:00,72.0,42.0,-100.00,NW,305,1.0,4.0,34,0.00,,,0.01,343.000000,,2013-06-08 01:58:00,
2013-06-07 18:06:00,72.0,42.0,-100.00,NW,305,1.0,4.0,34,0.00,,,0.01,343.000000,,2013-06-08 02:06:00,
2013-06-07 18:13:00,72.0,42.0,-100.00,NW,305,1.0,4.0,34,0.00,,,0.01,343.000000,,2013-06-08 02:13:00,
2013-06-07 18:37:00,74.0,37.0,-100.00,WNW,289,3.0,9.0,26,0.00,,,0.00,677.000000,,2013-06-08 02:37:00,
2013-06-07 18:49:00,74.0,37.0,-100.00,WNW,289,3.0,9.0,26,0.00,,,0.00,677.000000,,2013-06-08 02:49:00,
2013-06-07 18:58:00,74.0,37.0,-100.00,WNW,289,3.0,9.0,26,0.00,,,0.00,677.000000,,2013-06-08 02:58:00,
2013-06-07 19:14:00,74.0,37.0,-100.00,WNW,289,3.0,9.0,26,0.00,,,0.00,677.000000,,2013-06-08 03:14:00,
2013-06-07 19:40:00,74.0,41.0,-100.00,WSW,249,3.0,15.0,30,0.00,,,0.00,648.000000,,2013-06-08 03:40:00,
2013-06-07 19:52:00,74.0,41.0,-100.00,WSW,249,3.0,15.0,30,0.00,,,0.00,648.000000,,2013-06-08 03:52:00,
2013-06-07 19:59:00,74.0,41.0,-100.00,WSW,249,3.0,15.0,30,0.00,,,0.00,648.000000,,2013-06-08 03:59:00,
2013-06-07 20:03:00,74.0,41.0,-100.00,WSW,249,3.0,15.0,30,0.00,,,0.00,648.000000,,2013-06-08 04:03:00,
2013-06-07 20:12:00,74.0,41.0,-100.00,WSW,249,3.0,15.0,30,0.00,,,0.00,648.000000,,2013-06-08 04:12:00,
2013-06-07 20:33:00,69.0,38.0,-100.00,NW,322,2.0,9.0,32,0.00,,,0.00,274.000000,,2013-06-08 04:33:00,
2013-06-07 20:42:00,69.0,38.0,-100.00,NW,322,2.0,9.0,32,0.00,,,0.00,274.000000,,2013-06-08 04:42:00,
2013-06-07 20:53:00,69.0,38.0,-100.00,NW,322,2.0,9.0,32,0.00,,,0.00,274.000000,,2013-06-08 04:53:00,
2013-06-07 21:02:00,69.0,38.0,-100.00,NW,322,2.0,9.0,32,0.00,,,0.00,274.000000,,2013-06-08 05:02:00,
2013-06-07 21:12:00,69.0,38.0,-100.00,NW,322,2.0,9.0,32,0.00,,,0.00,274.000000,,2013-06-08 05:12:00,
2013-06-07 21:32:00,68.0,37.0,-100.00,NNW,335,1.0,7.0,32,0.00,,,0.00,232.000000,,2013-06-08 05:32:00,
2013-06-07 21:42:00,68.0,37.0,-100.00,NNW,335,1.0,7.0,32,0.00,,,0.00,232.000000,,2013-06-08 05:42:00,
2013-06-07 21:52:00,68.0,37.0,-100.00,NNW,335,1.0,7.0,32,0.00,,,0.00,232.000000,,2013-06-08 05:52:00,
2013-06-07 22:02:00,68.0,37.0,-100.00,NNW,335,1.0,7.0,32,0.00,,,0.00,232.000000,,2013-06-08 06:02:00,
2013-06-07 22:12:00,68.0,37.0,-100.00,NNW,335,1.0,7.0,32,0.00,,,0.00,232.000000,,2013-06-08 06:12:00,
2013-06-07 22:32:00,61.0,38.0,-100.00,NNW,343,0.0,5.0,42,0.00,,,-99.99,36.000000,,2013-06-08 06:32:00,
2013-06-07 22:42:00,61.0,38.0,-100.00,NNW,343,0.0,5.0,42,0.00,,,-99.99,36.000000,,2013-06-08 06:42:00,
2013-06-07 22:52:00,61.0,38.0,-100.00,NNW,343,0.0,5.0,42,0.00,,,-99.99,36.000000,,2013-06-08 06:52:00,
2013-06-07 23:02:00,61.0,38.0,-100.00,NNW,343,0.0,5.0,42,0.00,,,-99.99,36.000000,,2013-06-08 07:02:00,
2013-06-07 23:12:00,61.0,38.0,-100.00,NNW,343,0.0,5.0,42,0.00,,,-99.99,36.000000,,2013-06-08 07:12:00,
2013-06-07 23:32:00,52.0,43.0,-100.00,West,260,0.0,2.0,71,0.00,,,0.00,20.000000,,2013-06-08 07:32:00,
2013-06-07 23:42:00,52.0,43.0,-100.00,West,260,0.0,2.0,71,0.00,,,0.00,20.000000,,2013-06-08 07:42:00,
2013-06-07 23:52:00,52.0,43.0,-100.00,West,260,0.0,2.0,71,0.00,,,0.00,20.000000,,2013-06-08 07:52:00,